Year,Month,Day,Hour,Minute,Value (Times are PST for temperature in C)
2017,05,16,00,00,6.90
2017,05,16,00,01,6.90
2017,05,16,00,02,6.90
2017,05,16,00,03,6.90
2017,05,16,00,04,6.90
2017,05,16,00,05,6.90
2017,05,16,00,06,6.90
2017,05,16,00,07,6.90
2017,05,16,00,08,6.90
2017,05,16,00,09,6.90
2017,05,16,00,10,6.90
2017,05,16,00,11,6.80
2017,05,16,00,12,6.80
2017,05,16,00,13,6.80
2017,05,16,00,14,6.80
2017,05,16,00,15,6.80
2017,05,16,00,16,6.80
2017,05,16,00,17,6.80
2017,05,16,00,18,6.80
2017,05,16,00,19,6.70
2017,05,16,00,20,6.70
2017,05,16,00,21,6.70
2017,05,16,00,22,6.70
2017,05,16,00,23,6.70
2017,05,16,00,24,6.70
2017,05,16,00,25,6.80
2017,05,16,00,26,6.80
2017,05,16,00,27,6.80
2017,05,16,00,28,6.80
2017,05,16,00,29,6.70
2017,05,16,00,30,6.70
2017,05,16,00,31,6.60
2017,05,16,00,32,6.60
2017,05,16,00,33,6.60
2017,05,16,00,34,6.60
2017,05,16,00,35,6.70
2017,05,16,00,36,6.70
2017,05,16,00,37,6.70
2017,05,16,00,38,6.70
2017,05,16,00,39,6.70
2017,05,16,00,40,6.70
2017,05,16,00,41,6.70
2017,05,16,00,42,6.70
2017,05,16,00,43,6.70
2017,05,16,00,44,6.70
2017,05,16,00,45,6.60
2017,05,16,00,46,6.60
2017,05,16,00,47,6.60
2017,05,16,00,48,6.60
2017,05,16,00,49,6.60
2017,05,16,00,50,6.50
2017,05,16,00,51,6.40
2017,05,16,00,52,6.40
2017,05,16,00,53,6.50
2017,05,16,00,54,6.50
2017,05,16,00,55,6.50
2017,05,16,00,56,6.50
2017,05,16,00,57,6.30
2017,05,16,00,58,6.20
2017,05,16,00,59,6.10
2017,05,16,01,00,6.00
2017,05,16,01,01,5.90
2017,05,16,01,02,5.80
2017,05,16,01,03,5.70
2017,05,16,01,04,5.60
2017,05,16,01,05,5.50
2017,05,16,01,06,5.50
2017,05,16,01,07,5.50
2017,05,16,01,08,5.50
2017,05,16,01,09,5.50
2017,05,16,01,10,5.40
2017,05,16,01,11,5.40
2017,05,16,01,12,5.40
2017,05,16,01,13,5.40
2017,05,16,01,14,5.40
2017,05,16,01,15,5.40
2017,05,16,01,16,5.40
2017,05,16,01,17,5.40
2017,05,16,01,18,5.30
2017,05,16,01,19,5.30
2017,05,16,01,20,5.30
2017,05,16,01,21,5.30
2017,05,16,01,22,5.20
2017,05,16,01,23,5.20
2017,05,16,01,24,5.20
2017,05,16,01,25,5.20
2017,05,16,01,26,5.20
2017,05,16,01,27,5.30
2017,05,16,01,28,5.30
2017,05,16,01,29,5.30
2017,05,16,01,30,5.30
2017,05,16,01,31,5.30
2017,05,16,01,32,5.30
2017,05,16,01,33,5.30
2017,05,16,01,34,5.30
2017,05,16,01,35,5.30
2017,05,16,01,36,5.20
2017,05,16,01,37,5.20
2017,05,16,01,38,5.20
2017,05,16,01,39,5.20
2017,05,16,01,40,5.20
2017,05,16,01,41,5.20
2017,05,16,01,42,5.20
2017,05,16,01,43,5.20
2017,05,16,01,44,5.20
2017,05,16,01,45,5.20
2017,05,16,01,46,5.10
2017,05,16,01,47,5.10
2017,05,16,01,48,5.10
2017,05,16,01,49,5.10
2017,05,16,01,50,5.10
2017,05,16,01,51,5.00
2017,05,16,01,52,5.00
2017,05,16,01,53,5.00
2017,05,16,01,54,4.90
2017,05,16,01,55,4.90
2017,05,16,01,56,4.90
2017,05,16,01,57,4.90
2017,05,16,01,58,4.80
2017,05,16,01,59,4.80
2017,05,16,02,00,4.80
2017,05,16,02,01,4.80
2017,05,16,02,02,4.80
2017,05,16,02,03,4.70
2017,05,16,02,04,4.70
2017,05,16,02,05,4.70
2017,05,16,02,06,4.70
2017,05,16,02,07,4.60
2017,05,16,02,08,4.60
2017,05,16,02,09,4.60
2017,05,16,02,10,4.50
2017,05,16,02,11,4.50
2017,05,16,02,12,4.40
2017,05,16,02,13,4.40
2017,05,16,02,14,4.40
2017,05,16,02,15,4.30
2017,05,16,02,16,4.30
2017,05,16,02,17,4.30
2017,05,16,02,18,4.30
2017,05,16,02,19,4.20
2017,05,16,02,20,4.20
2017,05,16,02,21,4.20
2017,05,16,02,22,4.20
2017,05,16,02,23,4.20
2017,05,16,02,24,4.20
2017,05,16,02,25,4.20
2017,05,16,02,26,4.20
2017,05,16,02,27,4.20
2017,05,16,02,28,4.20
2017,05,16,02,29,4.20
2017,05,16,02,30,4.20
2017,05,16,02,31,4.20
2017,05,16,02,32,4.20
2017,05,16,02,33,4.20
2017,05,16,02,34,4.10
2017,05,16,02,35,4.10
2017,05,16,02,36,4.20
2017,05,16,02,37,4.20
2017,05,16,02,38,4.20
2017,05,16,02,39,4.20
2017,05,16,02,40,4.20
2017,05,16,02,41,4.20
2017,05,16,02,42,4.20
2017,05,16,02,43,4.20
2017,05,16,02,44,4.20
2017,05,16,02,45,4.20
2017,05,16,02,46,4.20
2017,05,16,02,47,4.20
2017,05,16,02,48,4.20
2017,05,16,02,49,4.20
2017,05,16,02,50,4.20
2017,05,16,02,51,4.20
2017,05,16,02,52,4.20
2017,05,16,02,53,4.20
2017,05,16,02,54,4.20
2017,05,16,02,55,4.20
2017,05,16,02,56,4.20
2017,05,16,02,57,4.20
2017,05,16,02,58,4.30
2017,05,16,02,59,4.30
2017,05,16,03,00,4.30
2017,05,16,03,01,4.40
2017,05,16,03,02,4.40
2017,05,16,03,03,4.40
2017,05,16,03,04,4.40
2017,05,16,03,05,4.40
2017,05,16,03,06,4.30
2017,05,16,03,07,4.20
2017,05,16,03,08,4.20
2017,05,16,03,09,4.10
2017,05,16,03,10,4.10
2017,05,16,03,11,4.00
2017,05,16,03,12,4.00
2017,05,16,03,13,4.00
2017,05,16,03,14,4.00
2017,05,16,03,15,3.90
2017,05,16,03,16,3.90
2017,05,16,03,17,3.90
2017,05,16,03,18,3.90
2017,05,16,03,19,3.80
2017,05,16,03,20,3.80
2017,05,16,03,21,3.80
2017,05,16,03,22,3.80
2017,05,16,03,23,3.80
2017,05,16,03,24,3.80
2017,05,16,03,25,3.80
2017,05,16,03,26,3.80
2017,05,16,03,27,3.80
2017,05,16,03,28,3.70
2017,05,16,03,29,3.70
2017,05,16,03,30,3.70
2017,05,16,03,31,3.70
2017,05,16,03,32,3.70
2017,05,16,03,33,3.70
2017,05,16,03,34,3.70
2017,05,16,03,35,3.70
2017,05,16,03,36,3.70
2017,05,16,03,37,3.70
2017,05,16,03,38,3.70
2017,05,16,03,39,3.70
2017,05,16,03,40,3.70
2017,05,16,03,41,3.70
2017,05,16,03,42,3.70
2017,05,16,03,43,3.70
2017,05,16,03,44,3.70
2017,05,16,03,45,3.70
2017,05,16,03,46,3.70
2017,05,16,03,47,3.70
2017,05,16,03,48,3.70
2017,05,16,03,49,3.80
2017,05,16,03,50,3.80
2017,05,16,03,51,3.80
2017,05,16,03,52,3.80
2017,05,16,03,53,3.80
2017,05,16,03,54,3.80
2017,05,16,03,55,3.80
2017,05,16,03,56,3.80
2017,05,16,03,57,3.80
2017,05,16,03,58,3.80
2017,05,16,03,59,3.80
2017,05,16,04,00,3.80
2017,05,16,04,01,3.80
2017,05,16,04,02,3.80
2017,05,16,04,03,3.80
2017,05,16,04,04,3.80
2017,05,16,04,05,3.80
2017,05,16,04,06,3.80
2017,05,16,04,07,3.70
2017,05,16,04,08,3.70
2017,05,16,04,09,3.70
2017,05,16,04,10,3.70
2017,05,16,04,11,3.70
2017,05,16,04,12,3.70
2017,05,16,04,13,3.70
2017,05,16,04,14,3.70
2017,05,16,04,15,3.70
2017,05,16,04,16,3.70
2017,05,16,04,17,3.70
2017,05,16,04,18,3.70
2017,05,16,04,19,3.70
2017,05,16,04,20,3.70
2017,05,16,04,21,3.70
2017,05,16,04,22,3.70
2017,05,16,04,23,3.70
2017,05,16,04,24,3.70
2017,05,16,04,25,3.70
2017,05,16,04,26,3.70
2017,05,16,04,27,3.70
2017,05,16,04,28,3.70
2017,05,16,04,29,3.70
2017,05,16,04,30,3.70
2017,05,16,04,31,3.70
2017,05,16,04,32,3.70
2017,05,16,04,33,3.70
2017,05,16,04,34,3.70
2017,05,16,04,35,3.70
2017,05,16,04,36,3.70
2017,05,16,04,37,3.70
2017,05,16,04,38,3.60
2017,05,16,04,39,3.70
2017,05,16,04,40,3.70
2017,05,16,04,41,3.70
2017,05,16,04,42,3.60
2017,05,16,04,43,3.60
2017,05,16,04,44,3.60
2017,05,16,04,45,3.60
2017,05,16,04,46,3.60
2017,05,16,04,47,3.60
2017,05,16,04,48,3.60
2017,05,16,04,49,3.60
2017,05,16,04,50,3.60
2017,05,16,04,51,3.60
2017,05,16,04,52,3.60
2017,05,16,04,53,3.60
2017,05,16,04,54,3.60
2017,05,16,04,55,3.60
2017,05,16,04,56,3.60
2017,05,16,04,57,3.60
2017,05,16,04,58,3.60
2017,05,16,04,59,3.60
2017,05,16,05,00,3.60
2017,05,16,05,01,3.60
2017,05,16,05,02,3.60
2017,05,16,05,03,3.60
2017,05,16,05,04,3.60
2017,05,16,05,05,3.60
2017,05,16,05,06,3.60
2017,05,16,05,07,3.60
2017,05,16,05,08,3.60
2017,05,16,05,09,3.60
2017,05,16,05,10,3.60
2017,05,16,05,11,3.60
2017,05,16,05,12,3.60
2017,05,16,05,13,3.60
2017,05,16,05,14,3.60
2017,05,16,05,15,3.70
2017,05,16,05,16,3.70
2017,05,16,05,17,3.70
2017,05,16,05,18,3.70
2017,05,16,05,19,3.70
2017,05,16,05,20,3.70
2017,05,16,05,21,3.70
2017,05,16,05,22,3.70
2017,05,16,05,23,3.70
2017,05,16,05,24,3.70
2017,05,16,05,25,3.70
2017,05,16,05,26,3.80
2017,05,16,05,27,3.80
2017,05,16,05,28,3.80
2017,05,16,05,29,3.80
2017,05,16,05,30,3.80
2017,05,16,05,31,3.80
2017,05,16,05,32,3.80
2017,05,16,05,33,3.80
2017,05,16,05,34,3.80
2017,05,16,05,35,3.80
2017,05,16,05,36,3.80
2017,05,16,05,37,3.80
2017,05,16,05,38,3.80
2017,05,16,05,39,3.80
2017,05,16,05,40,3.80
2017,05,16,05,41,3.80
2017,05,16,05,42,3.80
2017,05,16,05,43,3.80
2017,05,16,05,44,3.80
2017,05,16,05,45,3.80
2017,05,16,05,46,3.90
2017,05,16,05,47,3.80
2017,05,16,05,48,3.90
2017,05,16,05,49,3.90
2017,05,16,05,50,3.90
2017,05,16,05,51,3.90
2017,05,16,05,52,3.90
2017,05,16,05,53,3.90
2017,05,16,05,54,3.90
2017,05,16,05,55,3.90
2017,05,16,05,56,3.90
2017,05,16,05,57,3.90
2017,05,16,05,58,3.90
2017,05,16,05,59,3.90
2017,05,16,06,00,3.90
2017,05,16,06,01,3.90
2017,05,16,06,02,3.90
2017,05,16,06,03,3.90
2017,05,16,06,04,3.90
2017,05,16,06,05,3.90
2017,05,16,06,06,3.90
2017,05,16,06,07,3.90
2017,05,16,06,08,3.90
2017,05,16,06,09,3.90
2017,05,16,06,10,3.90
2017,05,16,06,11,3.90
2017,05,16,06,12,3.90
2017,05,16,06,13,3.90
2017,05,16,06,14,3.90
2017,05,16,06,15,3.90
2017,05,16,06,16,3.90
2017,05,16,06,17,3.90
2017,05,16,06,18,3.90
2017,05,16,06,19,3.90
2017,05,16,06,20,3.90
2017,05,16,06,21,3.90
2017,05,16,06,22,3.90
2017,05,16,06,23,3.90
2017,05,16,06,24,3.90
2017,05,16,06,25,3.90
2017,05,16,06,26,3.90
2017,05,16,06,27,3.90
2017,05,16,06,28,3.90
2017,05,16,06,29,3.90
2017,05,16,06,30,3.90
2017,05,16,06,31,3.90
2017,05,16,06,32,3.90
2017,05,16,06,33,3.90
2017,05,16,06,34,3.90
2017,05,16,06,35,3.90
2017,05,16,06,36,3.90
2017,05,16,06,37,3.90
2017,05,16,06,38,3.90
2017,05,16,06,39,3.90
2017,05,16,06,40,3.90
2017,05,16,06,41,3.90
2017,05,16,06,42,3.90
2017,05,16,06,43,3.90
2017,05,16,06,44,3.90
2017,05,16,06,45,3.90
2017,05,16,06,46,3.90
2017,05,16,06,47,3.90
2017,05,16,06,48,3.90
2017,05,16,06,49,3.90
2017,05,16,06,50,3.90
2017,05,16,06,51,3.90
2017,05,16,06,52,3.90
2017,05,16,06,53,3.90
2017,05,16,06,54,3.90
2017,05,16,06,55,3.90
2017,05,16,06,56,4.00
2017,05,16,06,57,4.00
2017,05,16,06,58,4.00
2017,05,16,06,59,4.00
2017,05,16,07,00,4.00
2017,05,16,07,01,4.00
2017,05,16,07,02,4.10
2017,05,16,07,03,4.10
2017,05,16,07,04,4.10
2017,05,16,07,05,4.10
2017,05,16,07,06,4.10
2017,05,16,07,07,4.10
2017,05,16,07,08,4.10
2017,05,16,07,09,4.20
2017,05,16,07,10,4.20
2017,05,16,07,11,4.20
2017,05,16,07,12,4.20
2017,05,16,07,13,4.20
2017,05,16,07,14,4.20
2017,05,16,07,15,4.20
2017,05,16,07,16,4.20
2017,05,16,07,17,4.20
2017,05,16,07,18,4.30
2017,05,16,07,19,4.30
2017,05,16,07,20,4.30
2017,05,16,07,21,4.30
2017,05,16,07,22,4.30
2017,05,16,07,23,4.30
2017,05,16,07,24,4.30
2017,05,16,07,25,4.30
2017,05,16,07,26,4.30
2017,05,16,07,27,4.30
2017,05,16,07,28,4.30
2017,05,16,07,29,4.40
2017,05,16,07,30,4.40
2017,05,16,07,31,4.40
2017,05,16,07,32,4.40
2017,05,16,07,33,4.40
2017,05,16,07,34,4.40
2017,05,16,07,35,4.50
2017,05,16,07,36,4.50
2017,05,16,07,37,4.50
2017,05,16,07,38,4.50
2017,05,16,07,39,4.60
2017,05,16,07,40,4.60
2017,05,16,07,41,4.60
2017,05,16,07,42,4.60
2017,05,16,07,43,4.60
2017,05,16,07,44,4.70
2017,05,16,07,45,4.70
2017,05,16,07,46,4.70
2017,05,16,07,47,4.70
2017,05,16,07,48,4.70
2017,05,16,07,49,4.70
2017,05,16,07,50,4.80
2017,05,16,07,51,4.80
2017,05,16,07,52,4.80
2017,05,16,07,53,4.80
2017,05,16,07,54,4.80
2017,05,16,07,55,4.80
2017,05,16,07,56,4.90
2017,05,16,07,57,4.90
2017,05,16,07,58,5.00
2017,05,16,07,59,5.00
2017,05,16,08,00,5.10
2017,05,16,08,01,5.10
2017,05,16,08,02,5.10
2017,05,16,08,03,5.10
2017,05,16,08,04,5.10
2017,05,16,08,05,5.10
2017,05,16,08,06,5.10
2017,05,16,08,07,5.10
2017,05,16,08,08,5.20
2017,05,16,08,09,5.20
2017,05,16,08,10,5.20
2017,05,16,08,11,5.30
2017,05,16,08,12,5.30
2017,05,16,08,13,5.30
2017,05,16,08,14,5.40
2017,05,16,08,15,5.50
2017,05,16,08,16,5.50
2017,05,16,08,17,5.60
2017,05,16,08,18,5.60
2017,05,16,08,19,5.60
2017,05,16,08,20,5.60
2017,05,16,08,21,5.60
2017,05,16,08,22,5.60
2017,05,16,08,23,5.70
2017,05,16,08,24,5.70
2017,05,16,08,25,5.60
2017,05,16,08,26,5.70
2017,05,16,08,27,5.60
2017,05,16,08,28,5.60
2017,05,16,08,29,5.60
2017,05,16,08,30,5.60
2017,05,16,08,31,5.60
2017,05,16,08,32,5.60
2017,05,16,08,33,5.60
2017,05,16,08,34,5.60
2017,05,16,08,35,5.60
2017,05,16,08,36,5.60
2017,05,16,08,37,5.60
2017,05,16,08,38,5.60
2017,05,16,08,39,5.60
2017,05,16,08,40,5.60
2017,05,16,08,41,5.60
2017,05,16,08,42,5.60
2017,05,16,08,43,5.70
2017,05,16,08,44,5.70
2017,05,16,08,45,5.70
2017,05,16,08,46,5.70
2017,05,16,08,47,5.70
2017,05,16,08,48,5.70
2017,05,16,08,49,5.80
2017,05,16,08,50,5.80
2017,05,16,08,51,5.90
2017,05,16,08,52,5.90
2017,05,16,08,53,6.00
2017,05,16,08,54,6.00
2017,05,16,08,55,6.10
2017,05,16,08,56,6.10
2017,05,16,08,57,6.10
2017,05,16,08,58,6.20
2017,05,16,08,59,6.20
2017,05,16,09,00,6.20
2017,05,16,09,01,6.30
2017,05,16,09,02,6.30
2017,05,16,09,03,6.30
2017,05,16,09,04,6.30
2017,05,16,09,05,6.40
2017,05,16,09,06,6.40
2017,05,16,09,07,6.50
2017,05,16,09,08,6.50
2017,05,16,09,09,6.60
2017,05,16,09,10,6.60
2017,05,16,09,11,6.70
2017,05,16,09,12,6.70
2017,05,16,09,13,6.70
2017,05,16,09,14,6.70
2017,05,16,09,15,6.70
2017,05,16,09,16,6.70
2017,05,16,09,17,6.70
2017,05,16,09,18,6.80
2017,05,16,09,19,6.90
2017,05,16,09,20,7.00
2017,05,16,09,21,7.00
2017,05,16,09,22,7.00
2017,05,16,09,23,7.00
2017,05,16,09,24,7.10
2017,05,16,09,25,7.10
2017,05,16,09,26,7.10
2017,05,16,09,27,7.20
2017,05,16,09,28,7.30
2017,05,16,09,29,7.30
2017,05,16,09,30,7.40
2017,05,16,09,31,7.50
2017,05,16,09,32,7.60
2017,05,16,09,33,7.70
2017,05,16,09,34,7.70
2017,05,16,09,35,7.80
2017,05,16,09,36,7.80
2017,05,16,09,37,7.80
2017,05,16,09,38,7.80
2017,05,16,09,39,7.90
2017,05,16,09,40,8.00
2017,05,16,09,41,8.00
2017,05,16,09,42,7.90
2017,05,16,09,43,8.00
2017,05,16,09,44,8.10
2017,05,16,09,45,8.20
2017,05,16,09,46,8.20
2017,05,16,09,47,8.20
2017,05,16,09,48,8.30
2017,05,16,09,49,8.30
2017,05,16,09,50,8.30
2017,05,16,09,51,8.30
2017,05,16,09,52,8.20
2017,05,16,09,53,8.20
2017,05,16,09,54,8.20
2017,05,16,09,55,8.20
2017,05,16,09,56,8.20
2017,05,16,09,57,8.20
2017,05,16,09,58,8.30
2017,05,16,09,59,8.30
2017,05,16,10,00,8.30
2017,05,16,10,01,8.30
2017,05,16,10,02,8.30
2017,05,16,10,03,8.40
2017,05,16,10,04,8.40
2017,05,16,10,05,8.30
2017,05,16,10,06,8.30
2017,05,16,10,07,8.40
2017,05,16,10,08,8.40
2017,05,16,10,09,8.40
2017,05,16,10,10,8.30
2017,05,16,10,11,8.30
2017,05,16,10,12,8.30
2017,05,16,10,13,8.40
2017,05,16,10,14,8.60
2017,05,16,10,15,8.60
2017,05,16,10,16,8.70
2017,05,16,10,17,8.70
2017,05,16,10,18,8.60
2017,05,16,10,19,8.60
2017,05,16,10,20,8.60
2017,05,16,10,21,8.60
2017,05,16,10,22,8.70
2017,05,16,10,23,8.70
2017,05,16,10,24,8.80
2017,05,16,10,25,8.80
2017,05,16,10,26,8.80
2017,05,16,10,27,8.70
2017,05,16,10,28,8.80
2017,05,16,10,29,8.80
2017,05,16,10,30,8.90
2017,05,16,10,31,8.90
2017,05,16,10,32,8.90
2017,05,16,10,33,8.80
2017,05,16,10,34,8.80
2017,05,16,10,35,8.90
2017,05,16,10,36,8.90
2017,05,16,10,37,8.90
2017,05,16,10,38,8.90
2017,05,16,10,39,8.90
2017,05,16,10,40,8.80
2017,05,16,10,41,8.90
2017,05,16,10,42,8.90
2017,05,16,10,43,9.00
2017,05,16,10,44,9.00
2017,05,16,10,45,9.10
2017,05,16,10,46,9.10
2017,05,16,10,47,9.20
2017,05,16,10,48,9.30
2017,05,16,10,49,9.30
2017,05,16,10,50,9.30
2017,05,16,10,51,9.30
2017,05,16,10,52,9.30
2017,05,16,10,53,9.30
2017,05,16,10,54,9.30
2017,05,16,10,55,9.30
2017,05,16,10,56,9.30
2017,05,16,10,57,9.30
2017,05,16,10,58,9.40
2017,05,16,10,59,9.50
2017,05,16,11,00,9.60
2017,05,16,11,01,9.60
2017,05,16,11,02,9.60
2017,05,16,11,03,9.70
2017,05,16,11,04,9.70
2017,05,16,11,05,9.70
2017,05,16,11,06,9.70
2017,05,16,11,07,9.70
2017,05,16,11,08,9.80
2017,05,16,11,09,9.80
2017,05,16,11,10,9.90
2017,05,16,11,11,9.90
2017,05,16,11,12,10.00
2017,05,16,11,13,10.10
2017,05,16,11,14,10.20
2017,05,16,11,15,10.20
2017,05,16,11,16,10.30
2017,05,16,11,17,10.30
2017,05,16,11,18,10.30
2017,05,16,11,19,10.40
2017,05,16,11,20,10.50
2017,05,16,11,21,10.60
2017,05,16,11,22,10.70
2017,05,16,11,23,10.60
2017,05,16,11,24,10.60
2017,05,16,11,25,10.60
2017,05,16,11,26,10.60
2017,05,16,11,27,10.70
2017,05,16,11,28,10.80
2017,05,16,11,29,10.80
2017,05,16,11,30,10.80
2017,05,16,11,31,10.80
2017,05,16,11,32,10.80
2017,05,16,11,33,10.80
2017,05,16,11,34,10.70
2017,05,16,11,35,10.60
2017,05,16,11,36,10.50
2017,05,16,11,37,10.50
2017,05,16,11,38,10.60
2017,05,16,11,39,10.60
2017,05,16,11,40,10.50
2017,05,16,11,41,10.40
2017,05,16,11,42,10.30
2017,05,16,11,43,10.30
2017,05,16,11,44,10.40
2017,05,16,11,45,10.50
2017,05,16,11,46,10.70
2017,05,16,11,47,10.70
2017,05,16,11,48,10.70
2017,05,16,11,49,10.80
2017,05,16,11,50,10.80
2017,05,16,11,51,10.70
2017,05,16,11,52,10.70
2017,05,16,11,53,10.70
2017,05,16,11,54,10.70
2017,05,16,11,55,10.70
2017,05,16,11,56,10.90
2017,05,16,11,57,11.00
2017,05,16,11,58,11.10
2017,05,16,11,59,11.00
2017,05,16,12,00,11.10
2017,05,16,12,01,11.20
2017,05,16,12,02,11.20
2017,05,16,12,03,11.20
2017,05,16,12,04,11.30
2017,05,16,12,05,11.40
2017,05,16,12,06,11.50
2017,05,16,12,07,11.60
2017,05,16,12,08,11.70
2017,05,16,12,09,11.70
2017,05,16,12,10,11.60
2017,05,16,12,11,11.50
2017,05,16,12,12,11.30
2017,05,16,12,13,11.30
2017,05,16,12,14,11.30
2017,05,16,12,15,11.30
2017,05,16,12,16,11.40
2017,05,16,12,17,11.50
2017,05,16,12,18,11.60
2017,05,16,12,19,11.70
2017,05,16,12,20,11.80
2017,05,16,12,21,11.90
2017,05,16,12,22,11.90
2017,05,16,12,23,12.00
2017,05,16,12,24,12.00
2017,05,16,12,25,12.10
2017,05,16,12,26,12.30
2017,05,16,12,27,12.40
2017,05,16,12,28,12.40
2017,05,16,12,29,12.50
2017,05,16,12,30,12.50
2017,05,16,12,31,12.50
2017,05,16,12,32,12.50
2017,05,16,12,33,12.40
2017,05,16,12,34,12.40
2017,05,16,12,35,12.50
2017,05,16,12,36,12.50
2017,05,16,12,37,12.60
2017,05,16,12,38,12.50
2017,05,16,12,39,12.30
2017,05,16,12,40,12.20
2017,05,16,12,41,12.20
2017,05,16,12,42,12.30
2017,05,16,12,43,12.30
2017,05,16,12,44,12.20
2017,05,16,12,45,12.10
2017,05,16,12,46,12.10
2017,05,16,12,47,12.00
2017,05,16,12,48,11.90
2017,05,16,12,49,11.80
2017,05,16,12,50,11.80
2017,05,16,12,51,11.80
2017,05,16,12,52,11.80
2017,05,16,12,53,11.70
2017,05,16,12,54,11.70
2017,05,16,12,55,11.70
2017,05,16,12,56,11.80
2017,05,16,12,57,11.90
2017,05,16,12,58,11.90
2017,05,16,12,59,11.90
2017,05,16,13,00,11.80
2017,05,16,13,01,11.80
2017,05,16,13,02,11.80
2017,05,16,13,03,11.80
2017,05,16,13,04,11.90
2017,05,16,13,05,11.80
2017,05,16,13,06,11.80
2017,05,16,13,07,11.80
2017,05,16,13,08,11.90
2017,05,16,13,09,12.00
2017,05,16,13,10,12.10
2017,05,16,13,11,12.20
2017,05,16,13,12,12.20
2017,05,16,13,13,12.30
2017,05,16,13,14,12.30
2017,05,16,13,15,12.30
2017,05,16,13,16,12.40
2017,05,16,13,17,12.50
2017,05,16,13,18,12.60
2017,05,16,13,19,12.60
2017,05,16,13,20,12.70
2017,05,16,13,21,12.70
2017,05,16,13,22,12.50
2017,05,16,13,23,12.40
2017,05,16,13,24,12.40
2017,05,16,13,25,12.40
2017,05,16,13,26,12.50
2017,05,16,13,27,12.50
2017,05,16,13,28,12.60
2017,05,16,13,29,12.70
2017,05,16,13,30,12.70
2017,05,16,13,31,12.80
2017,05,16,13,32,12.80
2017,05,16,13,33,12.80
2017,05,16,13,34,12.90
2017,05,16,13,35,12.90
2017,05,16,13,36,13.00
2017,05,16,13,37,13.10
2017,05,16,13,38,13.10
2017,05,16,13,39,13.20
2017,05,16,13,40,13.30
2017,05,16,13,41,13.50
2017,05,16,13,42,13.50
2017,05,16,13,43,13.40
2017,05,16,13,44,13.30
2017,05,16,13,45,13.10
2017,05,16,13,46,13.10
2017,05,16,13,47,13.20
2017,05,16,13,48,13.30
2017,05,16,13,49,13.50
2017,05,16,13,50,13.70
2017,05,16,13,51,13.90
2017,05,16,13,52,13.90
2017,05,16,13,53,14.00
2017,05,16,13,54,14.00
2017,05,16,13,55,13.80
2017,05,16,13,56,13.70
2017,05,16,13,57,13.60
2017,05,16,13,58,13.50
2017,05,16,13,59,13.60
2017,05,16,14,00,13.70
2017,05,16,14,01,13.80
2017,05,16,14,02,13.90
2017,05,16,14,03,13.90
2017,05,16,14,04,13.80
2017,05,16,14,05,13.70
2017,05,16,14,06,13.60
2017,05,16,14,07,13.50
2017,05,16,14,08,13.40
2017,05,16,14,09,13.40
2017,05,16,14,10,13.30
2017,05,16,14,11,13.30
2017,05,16,14,12,13.30
2017,05,16,14,13,13.20
2017,05,16,14,14,13.20
2017,05,16,14,15,13.30
2017,05,16,14,16,13.40
2017,05,16,14,17,13.50
2017,05,16,14,18,13.60
2017,05,16,14,19,13.70
2017,05,16,14,20,13.60
2017,05,16,14,21,13.60
2017,05,16,14,22,13.50
2017,05,16,14,23,13.50
2017,05,16,14,24,13.60
2017,05,16,14,25,13.70
2017,05,16,14,26,13.90
2017,05,16,14,27,14.00
2017,05,16,14,28,14.00
2017,05,16,14,29,14.10
2017,05,16,14,30,14.20
2017,05,16,14,31,14.30
2017,05,16,14,32,14.40
2017,05,16,14,33,14.50
2017,05,16,14,34,14.50
2017,05,16,14,35,14.40
2017,05,16,14,36,14.50
2017,05,16,14,37,14.60
2017,05,16,14,38,14.70
2017,05,16,14,39,14.80
2017,05,16,14,40,14.90
2017,05,16,14,41,15.00
2017,05,16,14,42,15.10
2017,05,16,14,43,15.10
2017,05,16,14,44,15.00
2017,05,16,14,45,14.90
2017,05,16,14,46,14.80
2017,05,16,14,47,14.80
2017,05,16,14,48,14.70
2017,05,16,14,49,14.70
2017,05,16,14,50,14.70
2017,05,16,14,51,14.70
2017,05,16,14,52,14.70
2017,05,16,14,53,14.80
2017,05,16,14,54,14.80
2017,05,16,14,55,14.80
2017,05,16,14,56,14.80
2017,05,16,14,57,14.80
2017,05,16,14,58,14.80
2017,05,16,14,59,14.80
2017,05,16,15,00,14.90
2017,05,16,15,01,15.00
2017,05,16,15,02,15.10
2017,05,16,15,03,15.20
2017,05,16,15,04,15.20
2017,05,16,15,05,15.20
2017,05,16,15,06,15.30
2017,05,16,15,07,15.40
2017,05,16,15,08,15.40
2017,05,16,15,09,15.40
2017,05,16,15,10,15.30
2017,05,16,15,11,15.40
2017,05,16,15,12,15.30
2017,05,16,15,13,15.30
2017,05,16,15,14,15.40
2017,05,16,15,15,15.50
2017,05,16,15,16,15.50
2017,05,16,15,17,15.50
2017,05,16,15,18,15.60
2017,05,16,15,19,15.70
2017,05,16,15,20,15.80
2017,05,16,15,21,15.80
2017,05,16,15,22,15.80
2017,05,16,15,23,15.80
2017,05,16,15,24,15.70
2017,05,16,15,25,15.50
2017,05,16,15,26,15.40
2017,05,16,15,27,15.30
2017,05,16,15,28,15.30
2017,05,16,15,29,15.40
2017,05,16,15,30,15.50
2017,05,16,15,31,15.50
2017,05,16,15,32,15.50
2017,05,16,15,33,15.40
2017,05,16,15,34,15.30
2017,05,16,15,35,15.30
2017,05,16,15,36,15.30
2017,05,16,15,37,15.30
2017,05,16,15,38,15.30
2017,05,16,15,39,15.30
2017,05,16,15,40,15.40
2017,05,16,15,41,15.40
2017,05,16,15,42,15.40
2017,05,16,15,43,15.40
2017,05,16,15,44,15.50
2017,05,16,15,45,15.50
2017,05,16,15,46,15.60
2017,05,16,15,47,15.60
2017,05,16,15,48,15.60
2017,05,16,15,49,15.60
2017,05,16,15,50,15.80
2017,05,16,15,51,15.90
2017,05,16,15,52,16.10
2017,05,16,15,53,16.20
2017,05,16,15,54,16.10
2017,05,16,15,55,16.10
2017,05,16,15,56,16.10
2017,05,16,15,57,16.10
2017,05,16,15,58,16.10
2017,05,16,15,59,16.00
2017,05,16,16,00,16.00
2017,05,16,16,01,16.00
2017,05,16,16,02,15.90
2017,05,16,16,03,15.90
2017,05,16,16,04,15.90
2017,05,16,16,05,15.90
2017,05,16,16,06,15.80
2017,05,16,16,07,15.80
2017,05,16,16,08,15.80
2017,05,16,16,09,15.90
2017,05,16,16,10,16.10
2017,05,16,16,11,16.20
2017,05,16,16,12,16.20
2017,05,16,16,13,16.30
2017,05,16,16,14,16.30
2017,05,16,16,15,16.30
2017,05,16,16,16,16.50
2017,05,16,16,17,16.60
2017,05,16,16,18,16.70
2017,05,16,16,19,16.70
2017,05,16,16,20,16.70
2017,05,16,16,21,16.70
2017,05,16,16,22,16.70
2017,05,16,16,23,16.80
2017,05,16,16,24,16.80
2017,05,16,16,25,16.80
2017,05,16,16,26,16.80
2017,05,16,16,27,16.80
2017,05,16,16,28,16.80
2017,05,16,16,29,16.80
2017,05,16,16,30,16.80
2017,05,16,16,31,16.70
2017,05,16,16,32,16.70
2017,05,16,16,33,16.70
2017,05,16,16,34,16.70
2017,05,16,16,35,16.70
2017,05,16,16,36,16.70
2017,05,16,16,37,16.70
2017,05,16,16,38,16.70
2017,05,16,16,39,16.80
2017,05,16,16,40,16.80
2017,05,16,16,41,16.70
2017,05,16,16,42,16.70
2017,05,16,16,43,16.70
2017,05,16,16,44,16.70
2017,05,16,16,45,16.70
2017,05,16,16,46,16.60
2017,05,16,16,47,16.60
2017,05,16,16,48,16.60
2017,05,16,16,49,16.60
2017,05,16,16,50,16.60
2017,05,16,16,51,16.70
2017,05,16,16,52,16.80
2017,05,16,16,53,16.80
2017,05,16,16,54,16.80
2017,05,16,16,55,16.90
2017,05,16,16,56,17.00
2017,05,16,16,57,17.10
2017,05,16,16,58,17.10
2017,05,16,16,59,17.20
2017,05,16,17,00,17.30
2017,05,16,17,01,17.40
2017,05,16,17,02,17.40
2017,05,16,17,03,17.50
2017,05,16,17,04,17.40
2017,05,16,17,05,17.20
2017,05,16,17,06,17.20
2017,05,16,17,07,17.10
2017,05,16,17,08,17.10
2017,05,16,17,09,17.10
2017,05,16,17,10,17.10
2017,05,16,17,11,17.10
2017,05,16,17,12,17.10
2017,05,16,17,13,17.10
2017,05,16,17,14,17.20
2017,05,16,17,15,17.30
2017,05,16,17,16,17.30
2017,05,16,17,17,17.30
2017,05,16,17,18,17.40
2017,05,16,17,19,17.40
2017,05,16,17,20,17.40
2017,05,16,17,21,17.40
2017,05,16,17,22,17.40
2017,05,16,17,23,17.40
2017,05,16,17,24,17.30
2017,05,16,17,25,17.20
2017,05,16,17,26,17.10
2017,05,16,17,27,17.10
2017,05,16,17,28,17.20
2017,05,16,17,29,17.30
2017,05,16,17,30,17.30
2017,05,16,17,31,17.40
2017,05,16,17,32,17.40
2017,05,16,17,33,17.40
2017,05,16,17,34,17.40
2017,05,16,17,35,17.40
2017,05,16,17,36,17.30
2017,05,16,17,37,17.40
2017,05,16,17,38,17.40
2017,05,16,17,39,17.50
2017,05,16,17,40,17.50
2017,05,16,17,41,17.40
2017,05,16,17,42,17.30
2017,05,16,17,43,17.40
2017,05,16,17,44,17.40
2017,05,16,17,45,17.40
2017,05,16,17,46,17.30
2017,05,16,17,47,17.30
2017,05,16,17,48,17.30